Location: Lake Arresoe
(56.0000°N, 12.5000°E)
Time: 20:42:49
(UTC+02:00)

Okean 3 - Pass Details

Date: 18 August 2020
Orbit: 576 x 601 km, 82.5° (Epoch: 30 September)

Event Time Altitude Azimuth Distance (km) Brightness Sun altitude
Rises 00:15:54 0° 333° (NNW) 2,862 8.5 -19.9°
Reaches altitude 10° 00:19:41 10° 299° (WNW) 1,954 6.7 -20.0°
Maximum altitude 00:20:57 11° 282° (WNW) 1,874 6.3 -20.1°
Drops below altitude 10° 00:22:14 10° 264° (W) 1,951 6.2 -20.1°
Enters shadow 00:24:14 - 243° (WSW) 2,335 6.4 -20.2°
